Madera, PA (16661)

2:12 AM EDT on August 29, 2015 (GMT -0400)
The Garden | | Change Station
CLOSE
Current Station
Personal Weather Station
Location: Houtzdale, PA
Elevation: 1578 ft
Nearby Weather Stations

Elev 1578 ft 40.79 °N, 78.37 °W | Updated 22 seconds ago

Clear
Clear
51.3 °F
Feels Like 51.3 °F
N
0.0
Wind Variable Wind from South
Gusts 0.0 mph

Today
High -- | Low -- °F
--% Chance of Precip.
Yesterday
High -- | Low -- °F
Precip. -- in
6:37 AM 7:51 PM
Full, 100% visible
Pressure 30.22 in
Visibility 9.0 miles
Clouds Clear
Dew Point 51 °F
Humidity 99%
Rainfall 0.00 in
Snow Depth Not available.
UV 0.0 out of 12
Pollen 9.60 out of 12
Air Quality Not available.
Flu Activity Not available.
METAR KFIG 290554Z AUTO 34005KT 9SM CLR 11/10 A3022 RMK AO2 SLP231 T01110100 10183 20111 56004
Pressure 30.22 in
Visibility 9.0 miles
Clouds Clear
Dew Point 51 °F
Humidity 99%
Rainfall 0.00 in
Snow Depth Not available.
UV 0.0 out of 12
Pollen 9.60 out of 12
Air Quality Not available.
Flu Activity Not available.
METAR KFIG 290554Z AUTO 34005KT 9SM CLR 11/10 A3022 RMK AO2 SLP231 T01110100 10183 20111 56004

10-Day Weather Forecast

×

Almanac

Astronomy

Aug. 29, 2015 Rise Set
Actual Time
Civil Twilight
Nautical Twilight
Astronomical Twilight
Moon
Length of Visible Light
Length of Day
Tomorrow will be .
, % of the Moon is Illuminated

Today's Extremes

State Highs State Lows

Community

WunderPhotos

Upload Photos

1,850,622 photos uploaded!

WunderBlogs® & News

Nearby

Air Quality

  Air Quality AQ Index Pollutant
Not available.

Snow Depth

Station Depth Elevation

Earthquake Activity

City Distance Mag. Time & Date
Minimum magnitude displayed is 2.5.

Coastal Water Temperatures

Place Temperature

Stations

Nearby Weather Stations

Station Location Temp. Windchill Dew Point Humidity Wind Precip. Elev Updated Type